Flag for Portugal Weather past 2 weeks in Lisbon, Portugal

Now
68 °F

Clear.


Feels Like: 68 °F
Forecast: 66 / 84 °F
Wind: 14 mph from North

Location: Lisbon Portela Airport

Current Time: Oct 1, 2014 at 12:00:59 AM

Latest Report: Sep 30, 2014 at 11:00 PM


Visibility: 10 mi

Pressure: 30.18 "Hg

Humidity: 69%

Dew point: 57 °F

Location of LisbonLocation

Historic Weather in Lisbon — Graph

°F

Lisbon temperature yesterday

Maximum temperature yesterday: 77 °F (at 3:30 PM)
Minimum temperature yesterday: 61 °F (at 1:30 AM)
Average temperature yesterday: 69 °F

Past Weeks' High & Low Weather Summary

 TemperatureHumidityPressure
High81 °F (Sep 25, 5:00 PM)100% (Sep 17, 3:00 AM)30.24 "Hg (Sep 17, 3:00 AM)
Low59 °F (Sep 28, 4:00 AM)47% (Sep 30, 4:30 PM)29.59 "Hg (Sep 16, 2:00 PM)
Average68 °F81%29.96 "Hg
* Reported Sep 15 11:00 PM — Sep 30 11:00 PM, Lisbon, Weather by CustomWeather, © 2014

Note: Actual official high and low records may vary slightly from our data, if they occured in-between our weather recording intervals... More about our weather records

Advertising

Lisbon weather history for previous 24 hours

 ConditionsComfort  
Time TempWeatherWind HumidityBarometerVisibility
11:00 PM
Sep 30
68 °FClear.14 mph69%30.18 "Hg10 mi
10:30 PM68 °FClear.13 mph73%30.18 "Hg10 mi
10:00 PM68 °FClear.13 mph73%30.18 "Hg10 mi
9:30 PM68 °FClear.13 mph73%30.18 "Hg10 mi
9:00 PM68 °FClear.12 mph78%30.15 "Hg10 mi
8:30 PM70 °FClear.12 mph73%30.15 "Hg10 mi
8:00 PM72 °FSunny.13 mph73%30.15 "Hg10 mi
7:30 PM73 °FSunny.10 mph69%30.15 "Hg10 mi
7:00 PM75 °FSunny.9 mph65%30.15 "Hg10 mi
6:30 PM77 °FPassing clouds.8 mph51%30.15 "HgN/A
6:00 PM77 °FPassing clouds.6 mph47%30.15 "HgN/A
5:30 PM77 °FPassing clouds.7 mph47%30.15 "HgN/A
5:00 PM77 °FPassing clouds.7 mph51%30.15 "HgN/A
4:30 PM77 °FPassing clouds.8 mph47%30.15 "HgN/A
4:00 PM77 °FPassing clouds.7 mph51%30.15 "HgN/A
3:30 PM77 °FPassing clouds.7 mph54%30.15 "HgN/A
3:00 PM75 °FPassing clouds.8 mph57%30.18 "HgN/A
2:30 PM75 °FPassing clouds.8 mph61%30.18 "HgN/A
2:00 PM75 °FPassing clouds.8 mph61%30.18 "HgN/A
1:30 PM75 °FPassing clouds.9 mph61%30.18 "HgN/A
1:00 PM73 °FPassing clouds.10 mph65%30.21 "HgN/A
12:30 PM73 °FPassing clouds.12 mph61%30.21 "HgN/A
12:00 PM73 °FPassing clouds.9 mph65%30.21 "HgN/A
11:30 AM72 °FPassing clouds.10 mph65%30.21 "HgN/A
11:00 AM70 °FPassing clouds.12 mph69%30.21 "HgN/A
10:30 AM68 °FPassing clouds.12 mph78%30.21 "HgN/A
10:00 AM68 °FPassing clouds.12 mph78%30.21 "HgN/A
9:30 AM66 °FPassing clouds.13 mph83%30.21 "HgN/A
9:00 AM64 °FPassing clouds.13 mph83%30.21 "HgN/A
8:30 AM63 °FPassing clouds.12 mph88%30.21 "HgN/A
8:00 AM63 °FPassing clouds.9 mph88%30.21 "HgN/A
7:30 AM63 °FClear.10 mph88%30.21 "Hg10 mi
7:00 AM63 °FClear.8 mph88%30.21 "Hg10 mi
6:30 AM63 °FPassing clouds.10 mph88%30.21 "HgN/A
6:00 AM63 °FClear.13 mph88%30.18 "Hg10 mi
5:30 AM63 °FClear.12 mph88%30.18 "Hg10 mi
5:00 AM63 °FClear.12 mph88%30.18 "Hg10 mi
4:30 AM63 °FPassing clouds.10 mph88%30.21 "HgN/A
4:00 AM63 °FClear.8 mph88%30.21 "Hg10 mi
3:30 AM63 °FClear.9 mph88%30.21 "Hg10 mi
3:00 AM63 °FClear.8 mph88%30.21 "Hg10 mi
2:30 AM63 °FClear.7 mph88%30.21 "Hg10 mi
2:00 AM63 °FClear.6 mph88%30.24 "Hg10 mi
1:30 AM61 °FPassing clouds.6 mph94%30.24 "HgN/A
1:00 AM63 °FPassing clouds.5 mph88%30.24 "HgN/A
12:30 AM63 °FClear.9 mph88%30.24 "Hg10 mi
12:00 AM64 °FPassing clouds.10 mph83%30.24 "HgN/A
Weather by CustomWeather, © 2014

See weather overviewHow to use our weather pages